Locarno-monti, Switzerland

9:27 PM CET on December 02, 2016 (GMT +0100)
Locarno-monti

Weather History for 06760 - March, 2013

Change the Weather History Date:

Friday, March 29, 2013

  Actual Average Record
Temperature  
Mean Temperature 44 °F -  
Max Temperature 50 °F - - ()
Min Temperature 37 °F - - ()
Degree Days  
Heating Degree Days 22    
Moisture  
Dew Point 37 °F    
Average Humidity 74    
Maximum Humidity 98    
Minimum Humidity 47    
Precipitation  
Precipitation 0.00 in - - ()
Sea Level Pressure  
Sea Level Pressure 29.74 in    
Wind  
Wind Speed 2 mph ()    
Max Wind Speed 8 mph    
Max Gust Speed -    
Visibility 3.3 miles    
Events      
T = Trace of Precipitation, MM = Missing Value Source: Averaged Metar Reports

Daily Weather History Graph

Daily Weather History Graph

Search for Another Location

Airport or City:

Trip Planner

Search our weather history database for the weather conditions in past years. The results will help you decide how hot, cold, wet, or windy it might be!

Date:

Astronomy

Mar. 29, 2013 Rise Set
Actual Time 6:10 AM CET 6:49 PM CET
Civil Twilight 5:40 AM CET 7:19 PM CET
Nautical Twilight 5:04 AM CET 7:55 PM CET
Astronomical Twilight 4:27 AM CET 8:33 PM CET
Moon 9:42 PM CET (3/29) 6:58 AM CET (3/29)
Length of Visible Light 13h 39m
Length of Day
12h 39m
Waning Gibbous, 95% of the Moon is Illuminated
Mar 29
Waning Gibbous
Apr 3
Last Quarter
Apr 10
New
Apr 18
First Quarter
Apr 25
Full

Hourly Weather History & Observations

Time (CET) Temp. Dew Point Humidity Pressure Visibility Wind Dir Wind Speed Gust Speed Precip Events Conditions
12:00 AM 38 °F 37 °F 94% 29.88 in - Calm Calm - -  
1:00 AM 38 °F 37 °F 94% 29.86 in - SSW 1.2 mph - -  
2:00 AM 38 °F 36 °F 91% 29.83 in - Calm Calm - -  
3:00 AM 38 °F 38 °F 98% 29.81 in - SE 1.2 mph - -  
5:00 AM 38 °F 37 °F 95% 29.78 in - East 2.3 mph - -  
6:00 AM 38 °F 36 °F 90% 29.78 in - ENE 1.2 mph - -  
7:00 AM 38 °F 35 °F 84% 29.78 in 1 mi WNW 1.2 mph - -   Mist
8:00 AM 38 °F 36 °F 92% 29.77 in - ENE 1.2 mph - -  
9:00 AM 44 °F 40 °F 79% 29.74 in - SE 3.5 mph - -  
11:00 AM 45 °F 37 °F 65% 29.73 in - SSW 8.1 mph - -  
12:00 PM 43 °F 37 °F 72% 29.73 in - SW 5.8 mph - -  
1:00 PM 47 °F 38 °F 60% 29.70 in 5 mi South 4.6 mph - -   Haze
2:00 PM 47 °F 36 °F 56% 29.69 in - South 5.8 mph - -  
3:00 PM 49 °F 35 °F 47% 29.68 in - West 3.5 mph - -  
5:00 PM 49 °F 37 °F 52% 29.65 in - SW 4.6 mph - -  
6:00 PM 49 °F 37 °F 52% 29.65 in - West 2.3 mph - -  
7:00 PM 48 °F 36 °F 54% 29.66 in 4 mi West 4.6 mph - -   Haze
8:00 PM 47 °F 37 °F 60% 29.67 in - WNW 1.2 mph - -  
9:00 PM 46 °F 38 °F 67% 29.69 in - WSW 3.5 mph - -  
11:00 PM 42 °F 38 °F 82% 29.72 in - West 4.6 mph - -